Wind_Speed
27 25 24 23 22 20 19 18 17 15 14 13 12 11 11 11 11 10 11 11 12 13 14 15 16 16 17 17 18 19 20 21 21 22 23 24 25 26 26 26 27 28 29 29 30 32 34 35 32 30 26 23 19 13 10 6 4 5 6 9 10 10 9 10 10 8 6 5 7 8 9 9 8 8 9 10 10 10 9 9 10 11 11 12 12 12 11 11
30 29 27 26 25 24 22 21 19 18 17 15 14 13 13 13 13 12 12 12 12 13 14 15 16 16 16 16 17 18 18 19 20 21 22 23 24 24 25 25 25 26 27 28 29 30 33 34 34 32 29 26 23 20 17 14 8 2 3 7 11 12 12 12 10 9 8 7 7 8 8 9 9 9 9 9 9 9 8 7 7 7 7 7 7 7 7 7
33 32 31 29 28 27 25 24 22 21 20 19 17 16 15 14 15 14 14 13 13 14 14 15 16 16 16 16 16 17 17 18 19 20 21 22 23 23 24 24 24 25 26 27 28 28 30 33 34 34 31 29 27 25 22 20 16 8 3 3 9 13 15 13 11 12 11 9 7 8 7 7 7 8 7 4 5 5 5 6 6 5 4 4 4 3 3 4
37 35 34 33 31 30 28 27 25 24 23 22 20 19 17 17 16 16 15 15 15 15 15 15 16 17 17 16 16 16 16 17 17 18 19 20 22 22 23 23 24 24 24 26 27 27 28 31 34 34 32 29 28 28 25 24 22 17 11 5 5 10 14 13 12 12 11 9 8 8 6 6 7 8 6 3 1 3 4 5 5 4 3 2 2 2 2 2
40 39 37 36 34 33 32 30 28 27 26 25 24 22 20 19 19 18 17 17 16 16 16 16 16 17 17 17 16 16 16 16 16 17 18 19 20 22 22 22 23 23 23 24 25 26 27 29 32 33 32 30 29 29 28 26 24 22 18 11 7 6 10 11 12 12 11 9 8 7 6 6 7 8 7 4 1 4 4 3 4 2 1 1 1 1 1 3
42 42 40 39 38 36 35 34 32 30 29 27 26 25 23 22 21 20 19 19 18 17 17 17 17 17 17 18 17 16 15 15 16 16 16 18 19 20 21 21 22 22 22 22 24 25 26 27 29 31 32 31 30 29 29 27 25 24 22 18 13 7 6 9 10 11 10 8 8 7 4 5 6 6 6 3 2 3 5 3 3 3 3 2 2 2 3 3
44 43 43 42 41 39 38 37 36 34 32 30 29 28 27 25 24 23 22 21 20 19 18 18 18 18 18 18 18 17 16 15 15 16 15 16 17 19 20 21 21 21 21 21 22 23 24 25 26 29 31 31 30 29 29 28 26 25 23 22 17 12 8 7 8 8 8 7 7 6 3 3 4 5 5 3 2 3 4 4 4 5 4 4 4 4 4 4
44 44 44 44 43 42 41 40 38 37 35 34 32 31 30 28 27 25 24 23 22 20 19 19 19 19 19 18 18 18 17 16 15 15 15 15 16 17 19 20 20 20 20 20 20 21 23 24 25 26 29 30 30 29 29 28 28 26 24 23 20 17 14 12 11 9 8 7 6 4 1 2 3 2 3 3 3 3 4 4 6 7 6 5 5 6 5 6
45 44 45 45 45 45 44 43 41 40 38 37 35 34 33 31 30 28 27 26 25 23 21 20 20 20 20 19 19 19 18 17 16 15 16 15 15 16 17 18 19 19 19 19 19 19 20 22 23 24 26 28 29 29 29 28 28 27 26 24 22 21 20 19 16 13 10 7 5 4 2 3 3 2 2 3 3 4 5 4 7 8 8 8 8 8 8 7
46 45 45 45 45 45 45 45 44 43 41 39 38 38 36 34 32 31 30 29 27 25 24 22 22 21 21 20 20 20 19 18 17 16 16 16 15 15 16 17 18 19 18 18 18 18 18 19 21 22 23 25 27 28 28 27 27 27 28 26 23 22 23 21 19 16 12 8 5 3 3 4 4 3 2 1 3 5 5 5 8 10 10 10 10 10 10 9
49 47 47 46 46 45 45 46 46 46 44 42 41 40 39 37 35 34 33 31 29 28 27 25 24 22 22 22 22 21 20 19 18 17 16 16 16 15 15 15 17 18 18 17 17 17 17 17 18 19 21 22 24 26 27 26 26 26 27 27 24 22 22 22 20 17 14 11 8 3 3 5 5 2 1 2 4 5 6 6 8 10 11 11 10 11 10 9
52 51 49 48 47 47 46 45 46 46 46 45 43 43 42 41 39 37 36 34 32 30 29 28 26 25 23 23 23 22 21 20 20 18 17 17 16 16 15 14 15 16 17 17 17 16 16 16 16 18 19 20 21 23 25 25 25 25 26 26 26 24 23 21 20 18 16 15 13 10 6 6 5 3 3 2 2 3 4 6 7 9 11 10 9 9 9 8
56 54 52 51 49 49 48 47 46 46 46 46 45 45 45 43 42 40 39 38 35 33 32 30 29 27 25 25 25 24 23 22 21 20 18 18 17 17 16 15 14 15 16 17 16 15 15 16 15 16 17 18 19 20 22 23 24 24 25 25 25 26 25 22 20 18 17 16 15 14 12 10 9 9 10 8 5 4 2 4 5 5 7 8 7 9 9 8
60 58 56 54 52 51 50 49 48 47 47 46 45 46 46 46 44 43 42 41 38 35 34 33 31 29 28 27 25 25 25 23 22 21 20 20 18 17 17 16 14 14 15 16 16 15 14 15 15 15 15 16 17 17 19 22 23 23 23 24 24 25 26 24 22 20 17 15 14 13 12 11 11 10 11 12 11 9 6 5 5 5 4 6 8 9 9 9
63 62 60 58 56 54 53 51 50 49 48 47 46 46 47 47 46 45 44 43 42 39 37 36 34 32 31 29 27 28 27 25 24 23 22 21 20 19 18 17 16 14 14 15 15 15 14 14 14 14 14 14 15 15 17 19 21 22 22 22 23 24 25 24 23 22 20 17 15 13 11 11 11 9 9 12 13 10 8 7 8 9 8 6 8 9 10 10
66 65 63 62 60 58 56 54 52 51 50 49 48 46 47 47 47 47 46 46 44 42 40 38 37 36 34 32 31 29 27 26 26 25 24 23 22 20 19 19 18 15 14 14 15 15 14 14 13 14 14 13 14 14 15 17 18 20 21 20 20 22 24 24 22 22 22 20 19 17 15 13 11 9 8 9 9 8 8 7 8 10 9 7 8 8 9 10
69 68 66 65 63 61 60 58 56 54 53 52 50 49 48 47 47 47 47 47 46 44 43 41 40 38 37 35 32 29 29 29 28 27 26 25 23 22 21 20 19 18 16 14 14 15 15 14 13 13 13 13 13 13 13 15 16 17 19 19 20 20 21 22 21 20 21 21 21 21 19 17 14 12 11 8 7 6 6 5 6 8 8 7 8 7 7 8
72 71 69 68 67 65 63 61 59 57 56 54 53 52 50 49 48 48 48 47 47 47 45 44 43 41 39 37 32 31 32 32 30 30 28 26 25 24 23 22 21 20 18 16 14 14 15 15 14 13 13 13 12 12 12 12 14 15 16 17 18 18 18 19 18 19 19 19 20 20 20 18 16 15 14 12 10 9 7 5 4 5 7 8 7 5 6 6
74 74 73 71 70 68 66 64 62 61 59 58 56 55 53 52 51 49 48 48 49 48 46 46 45 43 41 40 38 36 36 35 33 32 29 28 27 26 25 24 23 22 21 18 16 15 15 15 14 13 12 13 12 11 11 11 11 12 13 14 15 16 17 16 15 16 17 17 17 17 19 18 15 14 16 16 14 13 12 9 7 5 6 8 8 7 6 6
75 75 75 74 72 71 70 67 66 64 62 61 60 58 56 54 53 51 49 50 51 48 47 47 46 45 45 44 41 38 38 38 36 33 31 31 29 28 27 26 25 24 23 21 19 17 16 15 15 14 13 13 12 11 11 10 9 10 10 11 12 13 14 14 15 15 14 14 14 13 14 16 15 13 14 16 15 14 13 12 9 7 6 9 10 9 8 8
75 76 76 76 75 74 72 71 69 67 65 63 63 62 59 57 55 52 52 53 52 50 49 48 47 47 46 45 42 40 42 41 37 35 34 33 31 31 30 28 27 26 25 24 22 19 18 16 16 15 14 14 13 12 11 10 9 8 8 9 10 11 12 12 13 13 13 13 13 12 9 9 12 12 11 13 13 13 12 11 10 10 9 10 11 11 10 9
76 76 76 77 77 76 75 74 72 70 69 66 65 64 62 61 58 55 56 55 53 52 51 50 49 48 47 46 45 45 47 43 38 38 38 35 34 33 32 30 29 28 28 27 25 22 20 18 17 17 16 15 14 13 12 12 10 9 8 7 8 8 9 10 11 11 11 12 13 12 10 6 7 9 10 10 11 12 11 9 8 10 10 10 11 12 11 9
76 76 76 77 77 78 77 76 74 73 71 69 68 66 65 64 61 59 59 57 55 55 53 52 51 49 48 47 47 49 49 44 41 42 40 38 37 35 33 33 32 31 30 29 27 25 23 21 19 18 18 17 16 15 14 13 12 11 9 8 7 6 7 8 8 9 10 11 12 12 12 9 6 5 9 12 12 12 11 10 9 9 9 11 10 11 12 10
77 77 76 77 77 77 78 78 77 75 74 72 70 69 67 66 64 63 62 60 58 57 56 55 54 51 49 49 49 51 49 46 46 45 43 42 39 37 36 35 34 33 32 31 29 27 25 24 22 20 19 19 18 17 16 15 14 13 12 10 9 8 7 7 7 7 8 9 10 11 11 11 8 5 5 10 14 13 12 11 11 10 9 11 12 11 12 11
79 78 77 77 76 77 77 79 79 78 76 74 73 72 70 68 66 65 64 63 61 61 60 58 55 53 53 51 50 51 50 49 49 47 46 45 41 40 39 37 36 36 35 34 32 30 28 27 25 23 21 21 20 19 18 17 16 15 15 13 12 10 9 9 8 7 7 8 9 10 11 11 10 9 9 10 12 13 13 13 13 12 11 12 13 14 14 13
80 79 79 77 77 76 76 78 79 79 78 76 75 74 73 71 69 66 65 65 64 65 63 60 58 57 56 54 53 53 51 50 50 49 49 47 44 43 41 39 39 38 37 36 34 32 31 30 28 26 24 23 22 21 20 19 18 17 17 16 15 13 11 11 11 10 9 9 8 8 9 10 11 11 11 10 11 12 12 13 13 14 13 13 13 15 17 16
81 81 80 79 78 77 76 77 79 79 78 78 77 76 75 74 72 69 67 66 66 66 64 62 61 59 59 57 55 53 51 51 51 50 50 48 47 45 43 42 41 41 40 38 36 35 33 32 31 29 27 25 25 24 23 22 20 19 18 18 18 16 14 13 13 12 12 11 10 9 9 10 11 11 11 11 12 13 12 12 14 14 14 14 14 15 17 17
83 82 81 80 79 78 77 77 78 78 77 78 78 77 77 76 74 72 70 68 69 67 64 64 63 63 63 59 56 55 54 54 53 51 51 51 49 47 46 45 44 44 42 39 38 37 35 34 33 32 30 28 28 26 25 25 23 21 20 20 20 19 17 16 15 14 14 13 12 12 11 10 10 11 13 13 12 13 13 13 14 15 15 15 16 17 18 17
84 83 83 82 80 80 78 77 78 78 77 78 78 78 78 77 76 75 73 72 70 66 64 65 65 66 64 60 59 59 58 56 54 53 53 53 50 49 48 47 46 46 43 42 41 38 37 36 35 35 33 31 30 29 28 28 26 25 23 21 21 22 20 19 18 17 16 16 14 14 14 12 11 11 13 14 14 14 14 14 15 16 17 17 18 20 19 19
86 85 85 84 82 81 80 79 79 78 77 77 77 77 78 77 77 77 75 74 72 68 66 66 67 68 64 60 62 63 61 58 56 55 55 53 51 50 49 48 49 48 45 45 43 40 39 38 37 38 36 34 33 32 31 30 28 28 27 24 23 23 22 22 21 20 20 19 17 17 16 15 14 13 13 15 16 15 16 16 16 16 17 18 20 21 21 22
88 87 86 86 84 83 82 81 80 80 78 77 77 77 77 77 77 76 75 74 74 71 68 68 70 68 64 63 65 66 63 60 59 57 55 53 51 51 50 50 50 48 47 48 46 43 41 40 41 41 38 37 36 35 34 33 31 31 30 28 26 25 24 24 24 22 23 23 21 20 18 17 18 16 14 16 17 17 17 18 18 18 17 19 21 23 22 22
90 89 89 88 86 85 84 82 81 81 80 78 77 76 77 77 75 74 74 74 76 73 70 71 72 69 66 65 66 67 64 62 61 58 57 56 54 53 52 52 51 51 52 52 48 46 45 44 44 41 39 39 39 38 38 36 34 33 33 31 29 28 26 26 26 25 25 25 25 23 21 20 21 19 17 17 17 18 19 19 19 20 19 19 22 23 23 23
92 91 90 90 89 87 85 83 83 83 81 79 78 77 77 76 74 73 74 75 76 74 73 74 74 72 70 68 68 68 65 64 63 61 60 60 57 55 55 53 53 55 56 53 50 48 48 46 44 41 41 42 42 42 40 38 37 36 35 34 32 31 29 29 28 27 27 28 28 26 24 24 23 22 21 20 18 20 22 21 21 21 22 22 23 24 24 26
95 93 92 92 91 89 87 86 85 84 83 81 79 78 76 74 73 74 75 76 76 76 75 75 75 75 74 71 71 70 67 67 66 62 62 62 59 58 56 55 55 57 56 53 51 51 49 48 45 43 43 44 45 45 42 40 40 40 38 37 35 33 32 32 31 30 30 31 30 29 27 27 26 25 25 23 21 22 23 25 25 23 23 23 25 25 25 26
97 95 95 94 94 92 89 88 87 85 84 83 80 78 76 74 74 75 76 76 76 77 77 76 76 76 75 74 73 71 70 70 67 63 63 63 61 60 58 56 57 57 56 55 54 53 52 50 48 48 47 45 47 46 43 43 44 43 42 39 38 37 35 36 35 33 34 33 33 32 30 30 28 28 28 25 25 26 25 26 28 27 25 24 26 27 27 28
98 97 97 97 96 94 92 90 89 87 86 84 81 78 76 76 76 77 77 77 78 80 79 76 76 76 76 75 74 72 72 73 69 65 66 65 63 62 60 59 58 58 58 57 56 56 55 54 51 52 51 46 48 48 44 45 47 46 44 42 41 40 38 38 38 37 37 36 36 35 34 33 31 30 30 28 28 29 28 29 30 30 29 27 27 29 29 29
97 97 98 99 98 96 94 92 90 89 87 85 81 79 78 79 79 78 79 79 80 80 78 76 75 76 76 76 75 74 74 75 72 67 68 67 65 64 62 61 61 61 60 58 58 58 58 57 55 54 52 48 49 49 44 46 50 47 46 46 43 42 42 41 42 41 40 40 40 39 37 37 35 32 31 32 31 31 31 32 32 32 32 31 29 30 31 31
95 97 99 101 100 98 96 94 92 91 89 86 82 81 81 81 81 81 81 81 81 80 79 77 76 76 78 77 76 76 77 78 74 70 70 69 66 65 64 63 63 63 61 60 61 60 59 59 57 53 52 52 51 50 47 48 50 48 49 48 44 45 46 43 44 45 42 42 44 43 41 41 39 35 32 33 35 34 33 35 35 34 35 35 33 31 31 32
93 95 98 100 101 100 98 95 93 92 90 86 84 84 84 85 85 84 84 83 82 81 79 77 76 76 78 78 78 78 78 78 76 73 72 71 69 68 66 66 65 65 64 63 64 62 58 61 62 53 52 56 52 50 50 49 51 50 50 49 47 48 48 45 46 47 45 45 46 46 46 44 41 39 35 35 37 37 35 36 38 36 36 37 37 35 33 33
90 94 97 99 101 101 100 97 95 92 90 88 88 88 87 88 88 88 87 86 84 81 78 77 76 77 78 78 79 79 78 78 78 76 74 73 71 70 70 69 67 67 68 67 67 64 60 64 67 57 53 56 53 51 51 52 53 53 51 50 49 49 49 48 49 49 48 49 48 49 50 47 43 42 39 37 40 41 38 37 39 39 38 38 38 39 37 34
87 91 95 98 101 101 100 98 96 93 91 90 90 90 90 89 90 90 89 87 85 82 80 79 78 77 78 78 78 79 78 78 79 77 75 76 75 73 72 71 69 70 72 71 68 67 65 67 68 60 53 54 53 53 55 57 57 54 52 52 50 49 50 51 51 50 51 52 50 51 53 50 46 46 44 40 41 43 42 41 41 41 40 39 39 40 40 38
84 89 92 96 99 99 98 97 96 95 94 93 92 92 92 91 90 91 89 87 85 83 82 81 80 78 78 78 77 78 79 79 79 77 75 77 77 76 74 73 72 73 74 73 70 69 69 69 67 62 55 55 56 56 57 59 58 56 54 53 52 51 51 52 53 52 52 54 53 54 56 53 48 50 49 44 45 45 43 44 44 42 42 42 42 41 41 40
80 85 88 93 98 98 97 97 96 96 95 95 95 94 93 92 91 91 90 88 87 85 84 83 82 81 80 79 78 79 80 79 77 76 77 79 79 78 78 77 76 77 77 76 73 70 70 69 66 63 60 58 58 57 57 60 60 58 56 55 54 55 54 54 55 54 53 54 54 55 58 55 51 53 52 49 50 48 44 46 47 44 44 45 44 44 43 42
76 81 84 91 96 97 95 95 95 94 95 97 96 95 94 93 92 92 91 89 88 87 86 85 84 84 83 81 80 80 81 80 78 77 78 80 81 82 82 80 79 80 79 78 76 72 70 69 67 66 64 61 59 58 58 60 61 59 58 58 58 58 57 56 56 55 54 54 54 56 60 58 54 54 55 53 53 52 48 48 49 47 47 46 46 46 45 44
72 77 81 88 93 94 93 94 94 94 95 96 95 95 94 93 92 92 90 89 89 89 88 88 88 86 85 84 82 82 83 82 79 79 79 79 81 83 83 82 81 82 81 79 77 74 73 72 70 68 67 63 61 60 58 59 62 61 61 62 61 59 59 58 58 56 54 54 54 57 61 61 57 57 58 56 55 55 52 51 51 50 50 49 48 47 47 46
70 74 78 84 90 91 92 94 94 93 93 94 94 94 94 93 92 92 91 91 92 91 90 91 91 89 88 86 85 84 84 82 80 80 79 79 81 82 83 84 84 85 84 80 78 78 76 74 70 68 67 65 63 62 60 61 62 61 62 64 63 61 60 60 60 58 56 55 55 58 62 63 59 58 61 59 57 57 56 53 52 52 52 52 51 50 50 49
68 72 76 81 86 87 89 92 93 91 91 92 92 92 92 91 91 92 92 93 95 95 94 94 93 90 89 88 86 85 83 81 81 80 79 79 81 82 83 85 87 87 84 80 80 80 78 74 71 71 70 66 64 65 65 65 64 61 62 65 65 64 63 63 61 60 59 59 57 58 62 64 62 61 62 61 59 58 56 55 55 54 53 53 53 53 52 51
66 70 73 77 81 84 87 90 91 90 91 90 90 90 90 89 90 91 93 95 97 96 95 94 92 90 89 87 86 85 84 83 83 82 81 81 81 82 84 85 86 85 82 81 82 81 78 77 77 75 71 67 68 70 70 68 65 61 63 66 66 65 65 64 62 62 63 61 60 61 63 65 66 64 62 62 62 59 57 57 58 57 55 54 54 54 54 54
65 68 71 74 78 81 84 87 87 87 87 88 88 87 87 86 86 88 92 96 97 97 95 93 92 91 90 88 86 86 86 86 85 84 84 83 83 84 85 85 85 84 83 84 84 82 83 83 81 77 73 71 72 72 70 69 67 64 64 67 67 65 66 65 65 65 65 62 62 64 66 67 69 67 63 62 63 60 58 60 60 58 57 56 56 56 56 56
65 67 70 73 76 80 83 85 85 85 86 87 87 86 85 85 85 87 91 94 95 96 95 93 93 93 92 91 90 90 90 88 87 87 86 85 85 85 85 85 86 84 85 88 88 87 87 86 81 77 75 73 72 71 70 71 71 69 68 68 67 65 65 68 69 69 67 65 65 69 70 70 71 69 64 64 64 60 60 63 62 59 59 59 58 58 57 58
65 68 70 72 74 77 80 82 81 82 84 85 85 86 85 84 85 86 89 91 91 92 93 94 95 95 94 94 93 93 92 89 88 88 85 84 85 84 82 84 86 85 86 89 90 90 88 86 83 80 78 75 72 72 74 75 74 73 71 69 68 68 68 70 71 71 69 67 70 73 73 72 72 69 66 66 65 62 62 64 63 61 60 61 61 60 59 60
66 68 70 72 74 75 77 78 78 79 82 83 84 85 84 84 84 84 86 87 87 88 91 93 93 93 93 94 93 92 90 88 88 88 86 86 87 85 83 83 84 86 87 87 89 90 88 86 85 82 79 77 75 76 78 78 78 76 72 69 70 71 71 72 72 71 71 71 75 77 75 73 72 70 68 67 66 65 65 65 64 63 62 62 63 62 62 62
Wind_Direction
238 236 234 232 232 234 236 239 241 241 241 247 256 265 275 284 289 298 307 316 323 329 334 338 343 348 355 2 7 11 15 19 21 22 23 25 27 28 28 28 28 31 34 35 36 37 39 39 42 48 49 50 53 56 51 66 126 183 208 216 205 196 193 187 187 172 159 192 196 198 210 212 209 203 201 200 196 196 203 208 212 215 218 220 219 223 228 230
241 240 240 238 235 234 234 236 241 244 244 244 249 257 265 274 281 287 295 304 312 318 323 329 333 338 344 353 360 4 9 14 18 20 21 22 24 26 26 27 26 28 31 33 35 35 37 37 38 41 44 47 51 53 50 54 73 139 201 211 203 195 192 184 183 173 165 187 186 183 196 203 199 189 188 190 187 184 187 185 182 186 188 192 200 209 218 222
242 242 242 242 241 239 236 235 237 242 246 245 246 251 257 266 273 279 286 293 300 307 313 319 324 328 334 342 351 357 2 7 14 17 18 20 21 23 24 25 25 25 28 31 33 34 36 36 37 38 39 42 46 50 49 50 56 57 62 194 198 193 192 184 181 174 171 188 181 167 183 198 191 179 175 171 181 183 174 165 154 153 156 158 170 184 197 211
241 242 242 243 243 243 241 239 236 237 243 246 247 248 252 258 266 272 279 284 290 297 303 309 315 319 324 331 340 348 355 -0 7 12 16 17 18 20 21 22 22 23 25 28 30 32 34 35 36 37 36 38 42 46 47 48 51 54 59 82 168 190 193 186 182 176 175 186 173 156 167 192 188 172 150 104 180 209 188 163 154 151 154 154 162 173 191 223
241 241 242 242 243 244 244 244 241 238 239 243 248 249 249 254 260 266 272 277 282 288 294 300 306 311 316 322 329 337 345 352 358 6 11 15 16 17 19 20 20 21 22 25 28 30 32 34 35 36 36 37 40 44 45 45 46 49 53 65 97 159 189 189 189 184 181 183 171 152 155 185 191 174 152 96 62 224 224 185 166 190 214 200 210 231 247 254
240 241 241 241 242 242 244 245 245 243 240 240 244 248 249 251 255 260 265 270 275 281 287 292 298 303 308 313 319 326 334 342 349 356 4 10 13 14 16 17 17 18 19 21 26 29 30 32 34 35 35 37 39 41 45 46 45 46 47 51 65 93 149 177 184 185 183 178 170 152 150 186 186 178 166 118 70 227 239 224 212 252 268 259 268 278 276 273
240 240 240 241 241 241 242 243 245 246 244 242 242 245 247 249 252 256 260 264 269 274 279 284 289 295 300 305 311 316 323 331 339 345 354 3 8 11 12 14 15 15 16 18 22 26 28 30 32 33 34 36 37 40 44 46 47 48 47 48 50 61 90 126 143 156 163 164 165 149 147 206 187 175 183 196 236 243 239 238 260 279 283 280 284 286 284 284
241 241 240 240 240 241 241 242 244 245 246 245 244 244 245 246 249 252 255 259 263 267 272 277 282 287 292 297 303 308 313 321 329 335 343 353 1 7 9 10 11 12 13 15 18 22 26 28 31 32 32 34 36 39 42 45 47 49 49 50 50 53 62 75 88 101 115 130 137 128 159 223 193 174 183 207 227 241 239 256 278 281 290 298 298 296 296 300
243 242 241 240 240 240 240 241 242 243 245 246 246 247 246 245 246 249 252 255 258 262 265 269 274 280 284 289 294 300 305 311 319 326 331 340 351 360 5 6 7 9 9 12 14 17 22 26 29 32 32 32 35 38 40 42 45 47 50 51 53 55 57 59 62 66 73 84 97 113 176 180 156 156 166 204 235 251 262 282 282 287 302 305 304 302 303 308
245 244 243 242 241 240 239 239 240 242 243 244 245 247 247 246 246 247 249 251 254 257 260 263 267 272 277 282 286 292 297 303 310 316 322 329 338 349 358 2 4 5 5 8 10 12 17 22 26 30 32 32 33 37 40 41 44 47 50 52 53 55 57 59 60 61 61 62 78 136 200 178 156 140 137 215 286 278 281 283 281 295 306 306 305 304 304 309
245 245 244 244 243 241 240 239 239 240 241 243 244 245 247 248 247 247 247 248 250 253 256 258 261 265 270 275 280 285 289 296 301 307 313 319 327 336 347 356 359 -0 1 3 5 8 11 16 22 27 32 33 33 36 39 41 43 47 50 53 54 55 58 61 64 66 66 67 72 109 186 180 172 170 170 306 313 294 288 283 286 301 309 309 306 304 306 309
245 245 245 244 244 244 242 241 239 239 239 241 242 244 245 247 247 248 248 248 248 249 253 255 257 260 264 269 273 278 282 288 293 298 304 309 317 324 334 345 353 356 356 358 0 3 5 8 15 22 28 33 33 34 38 42 44 47 49 52 54 54 57 60 64 66 65 65 67 77 98 115 114 72 40 14 339 324 304 295 302 314 316 315 311 314 319 318
244 244 244 244 244 244 244 243 242 240 239 239 240 242 244 245 246 247 248 249 248 247 249 252 254 256 258 262 267 273 277 281 285 291 296 301 308 314 322 331 342 349 351 353 355 357 360 2 6 14 22 29 34 33 35 41 44 47 49 51 53 54 54 57 63 65 62 60 60 66 74 76 73 58 53 58 51 45 6 312 318 322 312 315 328 337 338 334
244 243 243 244 244 244 244 244 244 242 241 239 239 240 242 244 245 246 247 249 249 247 248 249 251 253 254 257 262 267 270 273 279 284 288 293 299 305 312 319 329 340 345 347 349 351 354 357 359 4 12 21 30 32 33 39 42 45 48 50 53 55 54 54 57 60 62 60 57 63 66 61 57 57 55 51 49 54 51 21 10 9 344 330 343 349 343 337
242 243 243 243 243 243 243 244 244 244 243 241 239 239 240 242 244 245 245 247 248 247 247 248 249 251 252 254 257 260 264 269 274 278 282 287 291 297 303 309 316 327 337 340 343 345 347 350 353 355 1 10 21 27 32 38 40 41 45 47 52 56 55 54 54 54 56 57 58 63 69 61 51 53 53 46 47 53 47 30 12 8 10 355 346 347 340 339
242 242 242 242 242 242 242 243 243 244 244 243 242 240 240 241 242 244 245 245 247 247 247 248 248 249 250 251 253 257 263 268 270 274 278 281 285 290 295 300 306 314 323 332 335 338 340 343 346 347 352 359 8 17 25 33 37 40 42 41 48 55 56 55 54 53 53 55 57 61 68 70 60 51 50 48 46 49 42 27 5 356 358 355 348 343 341 345
241 241 241 241 241 241 241 242 242 243 243 244 243 242 241 240 241 242 244 245 246 246 246 247 248 248 249 251 253 258 262 263 265 268 271 274 279 283 288 292 298 304 311 320 327 330 332 335 339 341 343 349 358 6 15 26 33 38 40 37 41 49 53 54 53 53 53 54 57 60 64 65 63 58 57 59 50 48 50 34 10 355 346 347 349 339 337 344
240 240 241 241 240 240 240 240 241 242 243 243 243 243 242 241 241 241 243 245 246 245 245 246 247 248 250 252 252 252 254 256 258 261 264 269 273 278 282 286 290 295 300 308 316 321 325 328 331 334 335 338 346 352 1 16 25 32 36 36 39 42 49 51 50 52 52 52 55 59 61 58 60 63 61 65 63 58 60 47 32 12 353 357 3 350 347 354
240 240 240 240 240 240 240 240 240 240 241 242 243 243 243 242 242 241 242 244 245 245 245 245 246 248 249 249 247 247 250 252 254 258 262 265 269 273 276 280 284 288 293 299 305 311 316 320 322 325 326 328 334 340 347 1 14 24 29 32 36 39 44 46 46 49 49 50 52 57 63 59 60 62 59 62 64 63 61 59 63 53 17 18 28 24 21 33
241 240 239 240 240 240 240 239 239 239 240 241 242 243 243 243 242 242 242 243 244 245 245 245 245 246 247 248 249 250 252 252 254 257 260 262 266 269 271 275 279 283 287 291 295 300 306 311 313 316 317 317 322 327 332 342 357 10 18 25 31 35 39 40 40 42 42 44 45 51 62 62 59 58 55 56 59 61 61 61 63 56 40 40 41 33 32 46
241 241 240 239 240 240 240 239 239 239 239 239 240 242 242 243 243 242 242 242 244 245 245 245 245 245 246 248 249 250 250 251 252 255 256 258 261 263 266 271 274 278 281 285 289 291 296 302 304 307 310 310 312 316 320 324 334 347 0 10 20 27 31 32 34 34 33 36 36 37 48 59 56 51 50 50 51 54 53 57 56 44 42 42 37 27 29 45
240 240 240 240 240 240 240 239 239 239 239 238 239 240 241 242 243 242 242 243 244 244 245 244 244 244 244 246 246 247 249 250 251 252 253 255 257 260 263 267 270 273 277 280 283 285 289 293 297 300 302 304 305 307 309 312 316 323 333 347 2 17 22 23 26 23 24 28 27 27 28 35 40 36 38 37 36 37 35 38 38 32 33 30 26 19 17 25
240 240 240 240 240 240 240 240 239 239 239 238 238 239 240 241 242 242 242 243 243 244 245 245 245 244 244 244 245 246 248 249 250 250 252 253 255 258 261 263 266 269 272 275 278 281 283 286 289 293 295 297 299 300 301 303 305 306 310 317 328 348 4 10 15 14 14 18 20 18 19 19 8 16 36 34 29 26 21 18 12 12 18 15 12 9 6 3
241 240 239 239 240 240 240 240 240 239 238 238 238 239 239 240 241 241 242 243 243 244 244 244 244 244 243 243 244 246 248 248 248 249 251 252 253 256 258 260 263 265 268 271 273 276 278 280 283 286 288 291 293 294 295 296 297 298 299 302 306 316 330 341 352 3 6 6 10 8 7 8 355 332 355 16 20 19 14 12 10 7 9 9 7 0 358 358
241 240 239 239 239 239 240 241 240 239 239 238 239 239 239 239 239 240 241 242 242 243 244 244 245 245 244 243 243 245 246 246 247 248 249 250 251 253 255 257 260 262 265 267 270 272 273 274 277 280 282 285 287 289 290 290 291 293 295 296 298 301 307 315 321 333 345 348 357 2 358 356 354 340 320 328 353 2 3 6 7 7 3 3 5 2 357 355
241 241 240 239 238 238 239 240 240 240 239 239 239 239 239 239 239 239 240 240 241 242 244 245 245 245 245 244 243 244 244 246 247 247 248 249 250 251 253 255 257 260 262 264 267 269 268 269 272 275 276 279 281 283 284 285 286 288 290 292 293 294 296 300 304 309 320 326 333 345 349 344 345 348 339 329 336 345 352 358 0 1 358 356 356 356 355 353
242 241 240 239 238 238 237 239 240 239 239 239 239 239 239 239 239 239 239 240 240 242 243 244 244 245 246 245 244 245 245 246 246 246 247 249 249 250 251 253 255 257 259 261 264 265 266 267 268 270 271 273 276 278 280 281 282 283 285 286 288 290 292 293 296 299 304 309 313 318 329 335 334 336 337 334 336 338 341 344 349 352 353 353 352 351 350 350
241 241 240 239 239 238 237 238 239 239 239 239 239 239 239 239 239 239 239 239 240 241 242 242 243 244 245 246 246 246 245 245 245 246 247 247 247 248 249 251 253 255 257 259 261 262 264 264 264 266 267 268 270 273 276 277 278 280 280 282 285 286 287 289 291 295 298 299 304 305 304 312 320 323 325 326 329 335 335 335 338 341 343 345 347 348 347 346
241 241 240 240 239 238 237 237 238 238 237 238 238 239 239 239 239 239 239 239 240 240 241 241 242 243 245 246 246 246 245 244 244 245 246 246 247 247 248 250 252 254 256 257 259 260 262 262 262 263 262 263 266 268 271 273 276 277 277 279 282 283 284 285 288 291 295 296 298 301 299 300 303 306 312 314 318 326 330 330 332 334 334 336 340 342 342 343
240 240 240 240 238 238 237 236 237 238 237 237 237 238 239 239 239 239 239 240 240 239 239 241 242 243 244 244 245 246 246 245 245 245 246 247 247 248 248 249 251 253 255 256 257 258 260 261 260 259 259 261 263 264 266 269 272 273 275 276 278 280 282 284 286 288 291 292 293 296 297 299 299 298 302 306 310 316 321 322 326 329 329 329 332 335 334 338
239 239 239 239 238 238 237 236 236 237 236 236 236 236 237 238 238 239 239 240 240 239 238 240 241 243 243 242 244 246 247 246 246 246 247 247 247 248 248 249 250 252 254 255 255 256 257 258 257 257 258 259 260 262 263 265 268 269 272 274 275 276 279 281 284 286 287 288 289 290 293 297 297 296 301 303 306 310 313 315 318 321 323 322 323 327 327 331
238 238 238 239 238 237 237 236 236 236 236 236 236 236 236 237 237 238 238 238 239 239 237 238 240 241 241 241 242 245 246 246 247 246 247 246 246 246 246 247 248 249 250 251 252 252 253 254 255 257 259 259 259 260 260 262 264 266 269 271 272 274 276 278 280 281 282 284 285 285 289 292 293 297 300 300 304 308 307 309 311 312 316 317 317 321 324 325
238 237 237 238 238 237 237 236 235 236 236 235 235 235 235 236 236 236 237 237 238 238 236 236 238 239 239 240 241 243 244 245 246 245 246 246 245 245 246 246 246 247 248 250 251 251 252 253 256 258 258 258 258 258 259 261 262 264 266 268 270 272 274 276 277 279 280 281 281 283 286 288 290 294 296 297 305 307 306 306 306 307 310 313 316 318 321 323
237 237 237 237 237 236 236 236 235 235 235 235 234 235 235 235 235 235 236 236 237 237 236 236 237 238 239 239 240 242 242 243 244 244 246 247 247 247 247 247 247 248 250 251 251 252 253 254 255 256 256 256 257 258 259 260 261 262 263 265 268 270 271 273 274 276 278 278 280 282 283 285 288 291 292 296 302 302 304 306 305 304 307 310 314 315 316 318
236 235 236 236 236 236 235 235 235 235 235 234 234 234 234 235 234 234 235 235 236 236 236 235 236 237 238 238 239 241 241 243 244 243 245 247 247 247 247 248 249 250 251 251 251 252 252 253 253 254 254 254 257 258 258 259 259 260 261 264 266 267 268 270 272 273 275 277 279 280 281 283 286 288 289 294 298 297 301 303 302 304 307 308 310 311 312 314
234 234 235 235 236 235 235 234 234 234 234 234 234 233 233 233 234 234 234 234 235 235 235 235 235 236 237 238 239 239 241 243 243 242 244 245 245 246 247 247 248 249 250 250 250 251 251 251 251 252 252 253 255 257 257 259 259 259 261 262 263 265 267 268 269 270 272 274 276 278 280 281 282 284 288 292 294 296 298 297 298 302 304 306 308 307 308 310
233 233 233 234 235 235 234 234 234 234 234 234 233 232 232 232 233 233 233 233 234 235 235 235 235 236 237 237 237 238 239 241 241 241 243 244 245 246 247 247 248 248 249 250 250 250 250 250 249 250 252 252 253 256 257 258 260 260 261 261 261 264 265 266 268 268 270 272 274 275 277 278 279 281 286 290 291 293 295 294 296 299 300 302 303 305 306 308
232 231 232 233 234 234 234 233 233 233 233 234 233 232 231 232 232 233 233 233 233 234 234 234 234 235 236 237 237 236 237 240 240 239 241 242 243 245 245 246 247 248 249 250 250 250 250 252 250 248 251 252 252 255 256 257 260 260 260 261 261 262 263 264 267 268 269 271 272 273 274 275 278 280 283 287 288 289 291 292 294 296 297 299 299 301 305 307
231 230 231 232 233 233 233 233 233 233 233 233 232 231 231 231 231 232 233 233 234 234 234 235 234 235 236 236 237 237 237 238 239 238 239 241 241 242 243 244 245 247 248 248 250 250 250 253 252 247 248 251 252 253 256 257 259 260 260 261 260 261 262 263 265 268 269 269 270 272 273 273 276 279 282 284 285 286 288 290 292 293 295 297 298 300 302 305
231 230 230 231 231 232 232 232 232 232 232 231 231 231 230 230 231 231 232 232 233 233 233 234 234 235 236 236 237 237 237 238 239 238 238 240 240 240 242 242 243 245 246 246 248 249 248 250 252 247 245 249 251 252 256 257 257 258 259 261 260 261 263 263 264 267 269 269 269 271 272 273 275 279 280 281 283 285 286 287 288 290 292 294 295 299 300 302
231 229 229 230 230 231 231 231 231 231 231 231 230 230 230 230 231 232 232 232 233 233 233 233 233 234 236 236 237 238 238 237 239 239 238 239 240 240 241 243 243 244 246 246 247 248 248 248 251 250 247 248 250 251 254 255 256 257 259 260 261 262 263 263 263 264 267 269 270 271 272 274 276 278 278 279 281 283 285 287 287 289 291 291 292 295 298 299
231 229 228 229 230 230 230 230 230 230 230 230 230 230 230 230 231 232 232 233 233 233 233 233 233 233 235 236 236 238 238 237 238 239 238 239 240 240 241 242 242 243 245 246 246 247 248 249 251 252 250 248 248 249 252 255 256 257 258 260 262 262 262 263 264 263 265 268 270 271 273 274 276 277 277 278 278 279 283 285 286 288 290 291 292 293 295 298
231 229 228 229 229 229 229 229 229 229 229 230 230 230 230 230 231 231 232 232 232 233 233 233 233 233 233 234 235 236 238 237 237 238 238 238 239 239 240 240 241 243 244 246 246 246 248 250 252 253 251 249 249 248 250 254 256 256 258 260 261 262 262 262 263 264 265 267 269 271 274 274 274 275 276 277 277 277 280 281 282 285 287 289 291 293 295 298
231 229 227 228 229 228 228 229 229 229 229 229 229 229 230 230 230 231 232 232 232 232 233 233 234 234 234 234 234 235 237 237 236 236 237 237 238 238 239 239 241 243 244 245 247 247 248 249 251 251 251 250 250 249 249 252 255 256 258 259 259 261 262 262 263 264 265 267 269 271 273 273 273 274 275 276 277 277 278 278 280 283 285 286 289 292 294 296
230 228 227 227 228 228 227 228 228 228 229 229 229 229 230 230 230 231 232 232 232 232 232 232 233 233 233 234 234 235 236 237 236 236 236 237 238 238 239 239 240 243 244 245 247 247 247 248 249 251 252 252 252 252 251 252 254 256 257 258 258 259 261 263 263 264 264 267 269 270 272 273 273 274 275 275 276 277 277 278 280 282 284 285 288 290 293 295
230 227 226 226 228 227 227 227 228 228 229 229 229 229 229 229 230 231 231 232 232 231 231 232 232 232 232 233 234 235 236 237 237 237 237 238 238 238 239 239 240 241 243 244 246 247 247 248 249 251 253 253 253 254 253 252 253 254 256 258 259 259 260 261 262 263 264 265 267 269 272 273 273 274 274 274 275 277 278 279 280 281 282 285 287 289 291 293
229 227 225 225 227 226 226 227 227 228 229 229 229 229 229 229 229 230 230 231 231 231 230 231 231 232 233 233 234 235 236 237 238 238 238 238 239 239 239 239 239 240 242 243 245 247 248 249 250 250 251 252 254 255 254 252 252 252 255 257 259 260 260 260 261 263 264 263 264 266 270 272 272 271 272 274 275 275 278 280 280 280 282 283 286 287 289 291
228 227 225 224 226 225 225 226 227 227 228 229 230 229 229 229 229 229 230 230 231 231 231 231 232 232 233 234 235 236 236 237 237 237 237 237 238 239 239 240 240 241 242 243 245 247 248 248 248 248 248 250 252 252 252 253 253 253 254 256 258 259 260 260 261 263 264 264 265 266 267 269 270 269 270 273 274 276 278 280 280 281 282 283 285 286 288 289
227 226 224 223 223 223 224 225 225 226 228 229 230 230 229 229 229 229 230 230 231 231 231 231 232 232 232 233 233 235 236 236 237 237 236 236 237 238 239 239 240 240 240 241 242 244 245 245 245 247 247 248 250 252 254 256 256 254 254 256 257 258 260 262 262 261 262 263 266 267 267 267 268 268 270 272 274 276 279 279 280 281 283 284 285 286 287 288
225 224 223 221 221 222 223 223 223 223 225 227 228 229 229 229 228 229 230 230 231 232 231 231 231 231 231 231 231 232 233 234 235 237 237 237 238 239 240 241 240 239 238 239 240 241 243 245 246 247 247 248 250 254 255 255 255 255 254 255 257 257 259 261 261 261 261 262 264 266 265 266 267 268 270 272 273 276 278 279 280 282 284 285 285 286 287 288
222 222 221 220 219 220 222 222 222 223 224 225 227 228 228 228 228 229 230 230 230 231 232 231 231 231 231 231 232 232 233 234 235 237 237 238 239 239 240 241 241 240 239 239 240 241 242 245 246 246 246 247 249 251 253 253 253 253 253 254 256 257 257 258 259 260 261 262 263 264 264 264 266 269 270 272 274 275 276 278 280 282 283 285 286 286 287 288
220 220 220 219 218 218 220 221 221 221 223 224 226 227 228 228 229 229 230 230 230 231 231 232 232 233 233 233 232 233 234 235 236 238 238 238 238 238 238 240 241 242 242 241 241 242 242 243 245 245 246 246 246 247 249 251 251 252 253 254 255 255 256 257 258 259 261 261 262 262 263 264 267 269 270 272 274 275 276 278 280 281 282 284 284 286 287 287
Height
11018 11020 11020 11022 11022 11023 11024 11024 11024 11025 11026 11026 11026 11027 11027 11027 11028 11028 11028 11027 11027 11026 11026 11026 11024 11024 11024 11024 11022 11022 11020 11020 11018 11018 11016 11016 11014 11013 11012 11010 11008 11006 11004 11003 11000 10999 10997 10994 10992 10990 10989 10987 10986 10984 10984 10982 10981 10980 10980 10980 10980 10982 10984 10984 10984 10982 10984 10986 10986 10988 10988 10988 10988 10988 10988 10989 10989 10990 10990 10990 10990 10990 10990 10990 10990 10990 10991 10991
11016 11018 11018 11020 11020 11022 11022 11023 11024 11024 11024 11026 11026 11026 11026 11026 11026 11027 11027 11027 11027 11026 11026 11026 11025 11024 11024 11024 11024 11022 11022 11020 11020 11018 11018 11016 11016 11014 11013 11012 11010 11008 11006 11004 11003 11001 10999 10996 10994 10992 10990 10989 10987 10986 10984 10982 10981 10980 10979 10979 10980 10982 10983 10984 10984 10984 10986 10986 10987 10988 10990 10989 10989 10989 10990 10990 10989 10990 10990 10990 10990 10990 10990 10990 10990 10990 10990 10990
11014 11016 11016 11018 11018 11020 11020 11022 11022 11023 11024 11024 11024 11025 11026 11026 11026 11026 11026 11027 11026 11026 11026 11026 11026 11025 11024 11024 11024 11024 11022 11022 11020 11020 11018 11018 11016 11016 11014 11013 11012 11010 11008 11006 11004 11002 11001 10999 10996 10994 10991 10990 10988 10986 10984 10982 10981 10980 10980 10979 10980 10981 10982 10983 10983 10984 10986 10988 10988 10989 10990 10990 10990 10990 10990 10990 10989 10990 10990 10989 10990 10990 10990 10990 10990 10990 10990 10990
11012 11013 11014 11015 11016 11017 11018 11020 11020 11022 11022 11022 11023 11024 11024 11024 11025 11026 11026 11026 11026 11026 11026 11026 11026 11025 11024 11024 11024 11024 11023 11022 11022 11020 11020 11018 11018 11016 11016 11014 11012 11011 11009 11008 11006 11004 11002 11000 10998 10995 10993 10992 10990 10986 10984 10983 10982 10982 10980 10980 10980 10981 10982 10982 10982 10984 10986 10988 10988 10989 10990 10990 10990 10990 10988 10989 10990 10990 10989 10990 10990 10990 10990 10990 10990 10990 10990 10990
11008 11010 11011 11012 11014 11014 11016 11017 11018 11019 11020 11021 11022 11022 11023 11024 11024 11024 11024 11026 11026 11026 11026 11026 11026 11025 11024 11024 11024 11024 11024 11022 11022 11021 11020 11020 11018 11017 11016 11015 11014 11012 11010 11009 11007 11006 11004 11002 11000 10998 10996 10994 10991 10988 10985 10984 10982 10982 10981 10981 10981 10980 10981 10982 10982 10984 10986 10986 10988 10989 10990 10990 10990 10989 10988 10988 10988 10988 10990 10990 10990 10990 10990 10990 10990 10990 10990 10990
11004 11006 11008 11010 11011 11012 11013 11014 11015 11016 11018 11019 11020 11020 11022 11022 11022 11023 11024 11024 11024 11025 11025 11025 11025 11024 11024 11024 11024 11024 11024 11023 11022 11022 11020 11020 11019 11018 11017 11016 11015 11014 11012 11010 11008 11007 11005 11004 11002 11000 10998 10996 10992 10990 10987 10985 10984 10982 10981 10980 10980 10980 10981 10982 10982 10983 10984 10986 10986 10988 10988 10990 10990 10989 10988 10986 10986 10988 10990 10990 10990 10990 10990 10990 10990 10989 10989 10989
11001 11002 11004 11006 11008 11009 11010 11012 11012 11014 11015 11016 11018 11018 11019 11020 11021 11022 11022 11022 11024 11024 11024 11024 11024 11024 11024 11024 11024 11024 11024 11023 11022 11022 11021 11020 11020 11018 11018 11016 11016 11014 11013 11012 11010 11008 11007 11005 11003 11001 11000 10997 10995 10992 10990 10988 10986 10984 10982 10981 10980 10980 10981 10981 10982 10983 10984 10985 10986 10986 10988 10989 10990 10990 10989 10988 10988 10988 10990 10990 10990 10990 10990 10990 10989 10989 10989 10989
10997 10998 11000 11002 11004 11006 11007 11008 11010 11010 11012 11014 11015 11016 11017 11018 11019 11020 11020 11021 11022 11023 11024 11024 11024 11024 11023 11023 11022 11022 11023 11023 11022 11022 11021 11020 11020 11019 11018 11017 11016 11015 11014 11012 11011 11010 11008 11006 11004 11002 11001 11000 10998 10994 10992 10990 10988 10986 10984 10982 10982 10982 10982 10982 10982 10982 10984 10984 10984 10986 10988 10989 10990 10990 10990 10990 10990 10990 10990 10990 10989 10989 10989 10988 10988 10988 10988 10988
10994 10995 10996 10998 11000 11002 11003 11005 11006 11008 11009 11010 11012 11013 11014 11016 11016 11018 11018 11019 11020 11022 11022 11022 11022 11022 11022 11022 11022 11022 11022 11022 11022 11022 11021 11020 11020 11020 11018 11018 11016 11016 11014 11014 11012 11011 11010 11008 11006 11004 11003 11002 10999 10996 10994 10992 10990 10988 10986 10984 10984 10984 10982 10982 10982 10982 10983 10984 10985 10986 10988 10988 10990 10990 10990 10990 10990 10990 10990 10990 10990 10989 10988 10988 10988 10988 10988 10988
10990 10992 10993 10994 10996 10998 10999 11001 11002 11004 11006 11008 11009 11010 11011 11012 11014 11016 11016 11017 11018 11020 11020 11021 11022 11022 11022 11022 11021 11021 11022 11022 11022 11022 11020 11020 11020 11020 11019 11018 11017 11016 11015 11014 11013 11012 11010 11010 11008 11006 11005 11004 11001 10998 10997 10994 10992 10990 10988 10986 10986 10985 10984 10984 10983 10984 10984 10985 10986 10987 10988 10989 10990 10990 10990 10990 10990 10990 10989 10989 10990 10988 10988 10988 10988 10988 10987 10987
10986 10987 10989 10990 10992 10994 10995 10996 10998 11000 11002 11004 11006 11006 11008 11010 11011 11012 11014 11014 11016 11018 11018 11019 11020 11020 11020 11020 11020 11020 11020 11020 11020 11020 11020 11020 11020 11020 11019 11018 11018 11016 11016 11014 11014 11012 11012 11010 11010 11008 11006 11005 11003 11001 10999 10997 10996 10993 10991 10990 10988 10987 10986 10986 10985 10985 10986 10986 10987 10988 10989 10990 10990 10990 10990 10989 10989 10990 10989 10989 10990 10988 10988 10988 10987 10986 10986 10986
10980 10982 10984 10986 10988 10989 10991 10992 10994 10996 10998 11000 11002 11003 11004 11006 11008 11009 11010 11012 11014 11015 11016 11017 11018 11018 11019 11019 11019 11019 11019 11020 11020 11020 11020 11019 11019 11019 11018 11018 11018 11017 11016 11015 11014 11013 11012 11011 11010 11009 11008 11006 11004 11003 11002 11000 10998 10996 10994 10992 10990 10990 10988 10987 10986 10987 10988 10988 10988 10989 10990 10990 10990 10990 10990 10989 10989 10989 10989 10990 10990 10988 10988 10988 10986 10986 10985 10985
10976 10978 10980 10982 10983 10984 10986 10988 10990 10992 10994 10996 10998 10999 11000 11002 11004 11006 11007 11008 11010 11012 11014 11014 11016 11016 11018 11017 11018 11018 11018 11018 11018 11018 11018 11018 11018 11018 11018 11018 11018 11017 11016 11015 11014 11014 11012 11012 11010 11010 11008 11008 11006 11005 11003 11001 11000 10998 10996 10994 10992 10991 10990 10990 10988 10988 10988 10989 10990 10990 10990 10990 10990 10990 10990 10990 10990 10990 10990 10990 10990 10989 10988 10988 10986 10985 10984 10984
10970 10972 10974 10976 10978 10980 10982 10984 10986 10988 10989 10992 10994 10995 10996 10998 11000 11002 11004 11004 11006 11010 11010 11012 11012 11014 11014 11015 11016 11016 11016 11017 11017 11018 11018 11017 11017 11018 11017 11018 11018 11017 11016 11016 11014 11014 11013 11012 11010 11010 11009 11008 11008 11006 11004 11002 11001 11000 10998 10996 10995 10993 10992 10992 10990 10990 10990 10990 10990 10990 10990 10990 10990 10991 10991 10990 10990 10990 10990 10991 10990 10990 10989 10987 10986 10984 10984 10984
10964 10966 10968 10970 10972 10975 10977 10979 10981 10983 10984 10987 10989 10991 10992 10994 10996 10998 11000 11000 11002 11006 11007 11008 11010 11010 11012 11013 11014 11014 11014 11016 11016 11016 11016 11016 11016 11016 11016 11016 11016 11017 11016 11016 11014 11014 11013 11012 11011 11010 11009 11008 11008 11007 11006 11004 11002 11001 11000 10998 10997 10995 10994 10993 10992 10992 10992 10992 10991 10991 10992 10992 10992 10992 10991 10991 10990 10990 10990 10992 10991 10990 10990 10988 10986 10985 10984 10984
10958 10960 10962 10964 10967 10970 10972 10974 10976 10978 10980 10982 10984 10986 10988 10990 10991 10992 10995 10996 10998 11001 11004 11004 11006 11008 11008 11010 11011 11012 11013 11014 11014 11014 11014 11014 11015 11014 11015 11015 11016 11016 11016 11016 11014 11014 11013 11012 11012 11010 11009 11008 11008 11007 11006 11004 11004 11002 11000 11000 10998 10997 10996 10995 10994 10994 10994 10993 10992 10992 10992 10993 10992 10992 10992 10992 10991 10990 10992 10993 10992 10992 10990 10988 10987 10986 10985 10984
10951 10953 10956 10958 10960 10964 10966 10968 10970 10973 10975 10977 10980 10982 10983 10985 10987 10988 10990 10992 10994 10996 10999 11001 11002 11004 11004 11006 11010 11012 11012 11012 11012 11012 11012 11013 11014 11014 11013 11014 11014 11014 11015 11015 11014 11014 11012 11012 11012 11010 11009 11008 11008 11007 11006 11005 11004 11003 11002 11001 11000 10998 10998 10997 10996 10996 10995 10994 10994 10993 10993 10994 10994 10994 10994 10994 10992 10992 10992 10994 10993 10992 10990 10990 10988 10987 10986 10985
10944 10946 10949 10952 10954 10957 10960 10962 10965 10968 10970 10972 10974 10976 10978 10980 10982 10984 10986 10988 10989 10992 10994 10996 10998 11000 11002 11004 11008 11008 11007 11008 11008 11010 11010 11011 11012 11012 11012 11012 11012 11012 11014 11014 11014 11013 11012 11012 11011 11010 11009 11008 11008 11006 11006 11005 11004 11004 11003 11002 11001 11000 10999 10999 10998 10998 10996 10996 10994 10994 10994 10994 10994 10995 10994 10994 10994 10993 10993 10992 10992 10992 10990 10990 10990 10988 10988 10986
10936 10938 10942 10944 10947 10950 10953 10956 10959 10962 10964 10966 10968 10970 10973 10976 10978 10980 10982 10984 10984 10986 10990 10992 10994 10997 10998 11000 11002 11003 11004 11004 11006 11007 11008 11009 11010 11010 11010 11010 11010 11010 11012 11012 11013 11012 11012 11011 11010 11010 11010 11008 11008 11007 11006 11006 11004 11004 11004 11003 11002 11002 11000 11000 11000 10998 10998 10996 10996 10996 10994 10994 10996 10996 10995 10994 10994 10994 10994 10993 10993 10992 10992 10991 10990 10989 10988 10986
10928 10931 10934 10937 10940 10943 10946 10950 10952 10956 10958 10961 10962 10964 10968 10970 10972 10976 10978 10978 10979 10982 10985 10987 10990 10992 10993 10994 10998 11001 11001 11002 11003 11005 11006 11006 11007 11008 11008 11008 11008 11008 11009 11010 11011 11012 11012 11011 11010 11010 11009 11008 11008 11007 11006 11006 11005 11004 11004 11004 11004 11002 11002 11001 11000 11000 10999 10998 10997 10996 10996 10996 10996 10996 10996 10995 10995 10995 10994 10994 10994 10994 10993 10992 10991 10990 10989 10988
10920 10923 10926 10930 10932 10936 10940 10942 10946 10950 10952 10955 10957 10958 10962 10964 10968 10972 10973 10972 10974 10978 10980 10982 10984 10987 10989 10992 10996 10997 10996 10997 11000 11002 11002 11004 11004 11005 11006 11006 11006 11006 11006 11008 11009 11010 11010 11010 11010 11009 11008 11008 11007 11006 11006 11006 11005 11004 11004 11004 11003 11002 11002 11002 11000 11000 11000 10998 10998 10997 10996 10996 10996 10996 10996 10996 10996 10995 10995 10995 10994 10994 10993 10992 10992 10991 10990 10988
10912 10914 10918 10922 10925 10928 10932 10935 10940 10942 10944 10948 10951 10953 10956 10959 10962 10966 10966 10967 10971 10972 10974 10977 10980 10982 10984 10987 10990 10990 10990 10994 10998 10998 10998 11000 11002 11002 11004 11004 11004 11004 11004 11004 11006 11008 11008 11008 11008 11008 11008 11007 11006 11006 11006 11005 11004 11004 11004 11004 11003 11002 11002 11002 11001 11001 11000 10999 10998 10998 10997 10996 10996 10996 10996 10995 10995 10995 10995 10995 10994 10994 10993 10992 10992 10991 10990 10988
10904 10906 10910 10914 10918 10920 10924 10928 10932 10934 10938 10942 10944 10947 10950 10953 10957 10960 10960 10963 10966 10967 10970 10972 10974 10978 10980 10982 10985 10984 10986 10991 10994 10993 10994 10997 10998 11000 11001 11001 11002 11002 11001 11002 11003 11004 11006 11006 11006 11006 11006 11006 11006 11005 11005 11004 11004 11003 11003 11003 11002 11002 11002 11002 11001 11001 11000 10999 10998 10998 10997 10996 10996 10996 10995 10994 10994 10994 10994 10994 10994 10993 10992 10992 10991 10990 10990 10989
10895 10898 10902 10905 10909 10912 10916 10920 10923 10927 10931 10934 10938 10940 10944 10947 10950 10954 10955 10958 10960 10962 10964 10966 10968 10972 10975 10977 10979 10979 10982 10986 10988 10989 10991 10992 10994 10996 10998 10998 10999 10999 10998 10999 11000 11002 11002 11004 11004 11005 11004 11004 11004 11004 11004 11003 11002 11002 11002 11002 11002 11002 11002 11001 11000 11000 11000 11000 10998 10998 10998 10997 10996 10995 10994 10994 10994 10993 10993 10994 10993 10992 10992 10992 10991 10990 10989 10988
10886 10890 10893 10897 10900 10904 10908 10911 10914 10919 10924 10928 10932 10933 10937 10940 10944 10948 10950 10952 10956 10956 10956 10960 10964 10967 10968 10972 10974 10974 10977 10980 10982 10985 10986 10988 10991 10992 10994 10996 10996 10996 10996 10996 10997 10998 11000 11000 11001 11002 11002 11002 11002 11002 11002 11002 11002 11000 11000 11000 11000 11000 11000 11000 11000 11000 11000 10999 10998 10998 10997 10997 10996 10994 10994 10993 10992 10992 10992 10992 10992 10992 10991 10990 10990 10989 10988 10987
10877 10880 10884 10888 10892 10896 10900 10902 10905 10911 10916 10920 10924 10926 10930 10932 10936 10942 10944 10946 10948 10948 10952 10956 10959 10961 10962 10966 10968 10969 10972 10975 10977 10980 10981 10983 10986 10988 10990 10992 10992 10992 10993 10994 10995 10996 10996 10997 10998 11000 11000 11000 11000 11000 11000 11000 11000 11000 10998 10998 10998 10998 10999 10999 10998 10998 10998 10998 10997 10997 10996 10996 10995 10994 10993 10992 10992 10992 10992 10992 10991 10990 10990 10990 10988 10988 10986 10985
10867 10871 10875 10879 10883 10888 10892 10894 10896 10903 10908 10912 10915 10919 10922 10925 10930 10934 10937 10940 10940 10942 10948 10951 10952 10955 10956 10958 10962 10965 10968 10970 10972 10974 10976 10978 10981 10983 10986 10988 10988 10989 10990 10991 10992 10992 10993 10994 10995 10996 10997 10998 10998 10998 10998 10998 10998 10999 10998 10996 10996 10997 10997 10997 10997 10996 10996 10996 10996 10996 10996 10995 10994 10994 10993 10992 10992 10990 10990 10990 10990 10990 10989 10988 10988 10987 10986 10984
10857 10862 10865 10870 10874 10878 10883 10886 10888 10894 10900 10902 10906 10911 10914 10918 10924 10926 10930 10933 10933 10938 10944 10945 10948 10948 10948 10954 10959 10960 10962 10964 10966 10970 10971 10972 10976 10978 10980 10982 10984 10984 10986 10988 10988 10989 10990 10991 10992 10993 10994 10994 10994 10995 10996 10996 10996 10997 10997 10996 10995 10995 10995 10995 10995 10995 10995 10994 10994 10994 10994 10994 10994 10993 10992 10992 10991 10990 10990 10989 10988 10988 10988 10987 10986 10986 10984 10984
10847 10852 10855 10860 10866 10868 10873 10878 10879 10884 10890 10894 10898 10904 10906 10911 10916 10920 10924 10926 10928 10935 10938 10938 10940 10940 10942 10952 10953 10952 10955 10958 10961 10964 10964 10966 10971 10974 10976 10978 10979 10980 10982 10984 10984 10986 10988 10988 10989 10990 10990 10991 10992 10992 10992 10992 10994 10994 10994 10994 10994 10993 10994 10993 10993 10993 10993 10992 10993 10992 10992 10992 10992 10992 10992 10990 10990 10989 10988 10988 10987 10986 10985 10984 10984 10984 10982 10982
10836 10842 10844 10849 10856 10859 10863 10868 10871 10875 10880 10885 10890 10895 10898 10903 10908 10912 10916 10920 10924 10928 10932 10932 10932 10933 10940 10946 10944 10944 10948 10953 10956 10958 10959 10962 10966 10968 10971 10973 10974 10976 10978 10979 10981 10983 10984 10984 10986 10985 10986 10988 10988 10989 10989 10989 10990 10991 10991 10992 10992 10992 10992 10991 10990 10990 10990 10990 10990 10990 10990 10990 10990 10990 10990 10989 10988 10988 10987 10986 10986 10985 10983 10982 10982 10981 10980 10979
10825 10831 10834 10838 10845 10849 10852 10858 10863 10865 10870 10876 10882 10886 10890 10895 10900 10905 10912 10916 10914 10919 10927 10926 10923 10928 10936 10939 10937 10937 10943 10947 10949 10952 10956 10958 10961 10963 10966 10968 10970 10972 10974 10974 10976 10978 10979 10980 10980 10980 10983 10984 10984 10986 10986 10986 10988 10988 10988 10989 10990 10990 10990 10989 10988 10988 10988 10988 10988 10988 10988 10988 10988 10988 10988 10988 10986 10986 10986 10985 10984 10984 10982 10980 10980 10978 10978 10976
10814 10820 10823 10826 10834 10838 10842 10849 10854 10855 10862 10868 10873 10878 10882 10887 10894 10900 10906 10906 10904 10912 10920 10916 10916 10924 10928 10930 10930 10930 10936 10940 10942 10948 10950 10952 10955 10958 10960 10962 10964 10966 10966 10968 10971 10973 10974 10976 10976 10978 10980 10980 10980 10982 10982 10982 10984 10984 10984 10986 10986 10987 10987 10987 10986 10987 10986 10986 10986 10986 10986 10986 10986 10986 10986 10985 10985 10984 10984 10984 10982 10982 10981 10980 10978 10977 10975 10974
10802 10808 10812 10815 10822 10826 10832 10839 10843 10846 10852 10859 10864 10870 10874 10881 10889 10893 10895 10896 10897 10904 10908 10908 10912 10916 10918 10924 10924 10924 10931 10934 10936 10942 10943 10944 10949 10952 10954 10956 10958 10959 10960 10962 10966 10968 10970 10972 10973 10975 10976 10976 10976 10976 10978 10979 10980 10980 10980 10981 10982 10984 10984 10984 10984 10984 10984 10984 10983 10983 10984 10984 10984 10983 10983 10982 10983 10982 10981 10981 10981 10980 10979 10978 10976 10975 10972 10970
10790 10797 10800 10804 10808 10814 10822 10828 10832 10837 10842 10849 10856 10862 10868 10876 10882 10884 10885 10887 10890 10894 10897 10901 10905 10906 10910 10916 10916 10919 10924 10925 10929 10936 10937 10938 10944 10946 10948 10952 10952 10953 10954 10958 10962 10963 10965 10968 10970 10970 10970 10970 10970 10972 10974 10976 10975 10976 10976 10977 10978 10980 10980 10980 10980 10981 10980 10980 10980 10980 10980 10980 10980 10980 10980 10980 10980 10980 10979 10978 10977 10977 10977 10976 10974 10972 10970 10968
10777 10784 10788 10791 10796 10803 10811 10816 10822 10828 10833 10839 10847 10854 10863 10870 10872 10874 10876 10879 10881 10883 10887 10894 10897 10899 10904 10908 10910 10914 10918 10918 10924 10930 10931 10934 10938 10940 10944 10946 10947 10948 10950 10953 10956 10958 10960 10962 10964 10964 10964 10966 10966 10966 10970 10972 10970 10970 10972 10974 10974 10974 10976 10976 10976 10977 10976 10976 10976 10976 10977 10977 10978 10978 10977 10978 10978 10976 10977 10976 10974 10973 10974 10974 10972 10969 10968 10966
10764 10772 10775 10778 10783 10790 10799 10805 10812 10818 10823 10830 10840 10849 10857 10860 10861 10864 10866 10869 10870 10872 10877 10885 10890 10892 10896 10900 10904 10909 10910 10910 10918 10924 10924 10926 10931 10934 10938 10940 10941 10942 10944 10947 10949 10951 10953 10955 10958 10957 10958 10963 10962 10961 10967 10966 10964 10966 10968 10970 10970 10970 10972 10972 10972 10973 10972 10973 10972 10972 10973 10973 10974 10975 10974 10975 10975 10974 10974 10972 10970 10970 10970 10970 10969 10966 10964 10964
10750 10758 10762 10764 10770 10779 10788 10794 10801 10808 10814 10822 10832 10842 10847 10848 10851 10854 10856 10858 10860 10863 10870 10879 10884 10887 10889 10892 10897 10902 10903 10902 10910 10918 10918 10920 10925 10928 10932 10934 10934 10935 10938 10940 10942 10944 10945 10946 10950 10953 10954 10958 10957 10956 10963 10962 10959 10964 10964 10964 10966 10966 10966 10968 10967 10968 10969 10968 10968 10968 10969 10968 10970 10972 10972 10972 10971 10971 10970 10968 10968 10968 10966 10966 10966 10964 10962 10960
10736 10744 10748 10750 10758 10768 10775 10783 10791 10798 10804 10814 10825 10832 10836 10838 10840 10842 10845 10848 10850 10856 10863 10870 10876 10878 10880 10884 10888 10892 10894 10894 10902 10910 10910 10913 10920 10922 10925 10928 10928 10930 10932 10934 10934 10935 10939 10940 10942 10950 10950 10950 10952 10954 10957 10956 10955 10958 10958 10959 10964 10962 10961 10964 10962 10962 10965 10964 10963 10963 10964 10964 10964 10968 10970 10969 10967 10968 10968 10966 10964 10964 10963 10962 10962 10962 10960 10958
10723 10730 10734 10738 10746 10755 10762 10772 10780 10786 10796 10808 10816 10820 10822 10826 10828 10831 10834 10839 10842 10849 10856 10863 10868 10870 10871 10876 10880 10882 10888 10889 10894 10902 10904 10907 10912 10914 10917 10920 10921 10923 10924 10926 10926 10928 10936 10933 10932 10944 10947 10943 10947 10950 10951 10952 10950 10952 10952 10954 10958 10956 10956 10960 10958 10958 10960 10960 10958 10958 10958 10959 10960 10963 10966 10966 10962 10962 10964 10963 10960 10961 10960 10958 10956 10957 10958 10956
10710 10716 10722 10727 10733 10740 10750 10760 10769 10778 10789 10798 10802 10805 10810 10814 10817 10820 10824 10829 10834 10842 10850 10855 10858 10861 10863 10868 10872 10874 10881 10884 10886 10892 10898 10900 10904 10906 10908 10911 10915 10916 10914 10917 10919 10923 10930 10926 10922 10935 10942 10938 10943 10947 10946 10946 10944 10946 10948 10950 10952 10952 10952 10954 10954 10954 10954 10954 10954 10953 10950 10952 10956 10958 10960 10962 10958 10957 10959 10960 10958 10957 10958 10956 10954 10952 10953 10954
10697 10702 10710 10714 10718 10728 10740 10750 10760 10769 10778 10784 10788 10793 10798 10802 10806 10810 10814 10822 10828 10836 10842 10845 10849 10853 10854 10859 10865 10867 10872 10876 10878 10884 10892 10893 10895 10899 10902 10904 10909 10908 10905 10909 10914 10917 10920 10918 10916 10926 10935 10936 10940 10942 10940 10938 10938 10941 10944 10944 10946 10948 10948 10948 10949 10950 10950 10948 10948 10948 10944 10947 10952 10952 10954 10958 10955 10952 10953 10954 10953 10953 10952 10952 10952 10950 10950 10950
10684 10690 10699 10704 10708 10719 10730 10739 10748 10757 10764 10771 10776 10781 10786 10792 10798 10801 10808 10816 10822 10828 10832 10836 10840 10845 10846 10852 10858 10859 10862 10868 10872 10878 10884 10885 10887 10892 10895 10898 10900 10899 10898 10901 10907 10910 10911 10910 10912 10920 10928 10932 10932 10934 10935 10932 10933 10936 10938 10940 10941 10942 10942 10942 10942 10944 10945 10943 10943 10942 10938 10942 10948 10944 10946 10952 10950 10948 10950 10948 10946 10948 10948 10946 10947 10947 10946 10946
10672 10680 10690 10694 10696 10706 10718 10726 10736 10745 10752 10758 10762 10768 10776 10783 10788 10792 10798 10806 10812 10818 10822 10826 10832 10835 10838 10844 10849 10850 10852 10859 10866 10871 10874 10876 10880 10884 10886 10889 10891 10890 10891 10894 10898 10904 10904 10904 10909 10914 10920 10924 10926 10928 10930 10928 10928 10932 10933 10934 10935 10934 10935 10936 10936 10938 10940 10939 10938 10936 10932 10936 10942 10939 10940 10944 10942 10942 10946 10944 10942 10944 10944 10942 10942 10941 10941 10942
10662 10670 10679 10679 10681 10695 10708 10716 10725 10733 10738 10742 10748 10758 10766 10773 10778 10784 10790 10797 10804 10808 10813 10818 10822 10826 10830 10836 10840 10842 10842 10848 10858 10861 10863 10866 10870 10872 10876 10880 10884 10882 10884 10886 10890 10896 10900 10900 10904 10907 10910 10916 10920 10922 10926 10924 10924 10926 10927 10928 10928 10928 10928 10930 10931 10933 10935 10934 10934 10932 10926 10928 10935 10934 10933 10936 10934 10934 10940 10938 10936 10938 10938 10938 10936 10936 10936 10936
10652 10658 10666 10667 10672 10687 10699 10704 10712 10718 10724 10732 10740 10749 10756 10763 10770 10776 10782 10788 10793 10798 10804 10808 10810 10815 10821 10826 10830 10832 10832 10840 10849 10852 10855 10859 10860 10863 10868 10872 10876 10876 10876 10880 10883 10888 10892 10894 10898 10900 10903 10910 10914 10916 10919 10920 10918 10920 10920 10919 10922 10924 10924 10924 10925 10927 10930 10930 10930 10926 10920 10920 10928 10928 10925 10928 10928 10927 10930 10932 10932 10932 10931 10931 10932 10931 10930 10930
10642 10647 10654 10656 10662 10677 10687 10691 10699 10708 10716 10723 10730 10737 10746 10754 10762 10767 10774 10777 10780 10786 10792 10794 10798 10804 10810 10814 10820 10824 10826 10835 10841 10843 10848 10852 10851 10855 10859 10863 10868 10866 10867 10874 10878 10879 10882 10888 10893 10896 10898 10902 10906 10908 10910 10912 10911 10914 10915 10913 10914 10917 10918 10918 10920 10922 10924 10924 10924 10922 10914 10913 10920 10921 10916 10920 10922 10921 10922 10926 10926 10926 10926 10925 10925 10924 10924 10923
10631 10636 10644 10648 10654 10668 10676 10680 10690 10700 10705 10711 10718 10726 10736 10744 10750 10756 10760 10762 10764 10771 10778 10781 10788 10796 10801 10806 10813 10818 10822 10828 10830 10834 10842 10844 10843 10846 10850 10852 10854 10856 10864 10872 10870 10870 10875 10882 10887 10890 10892 10896 10900 10900 10900 10900 10904 10908 10910 10907 10907 10910 10911 10912 10914 10916 10916 10916 10918 10917 10910 10907 10911 10913 10910 10912 10914 10916 10918 10918 10918 10920 10920 10920 10920 10918 10918 10917
10623 10628 10636 10642 10649 10659 10665 10670 10680 10689 10694 10702 10709 10717 10725 10732 10740 10744 10746 10748 10751 10758 10766 10774 10782 10790 10794 10800 10807 10812 10815 10817 10818 10824 10830 10832 10833 10836 10839 10842 10846 10853 10863 10866 10862 10863 10868 10873 10876 10880 10886 10891 10890 10888 10890 10892 10897 10902 10902 10900 10901 10903 10904 10906 10910 10909 10907 10908 10911 10909 10904 10901 10901 10904 10906 10906 10906 10910 10913 10912 10910 10912 10914 10914 10914 10912 10912 10911
10615 10620 10627 10634 10640 10647 10654 10660 10672 10680 10686 10692 10699 10707 10716 10722 10730 10732 10733 10736 10741 10748 10758 10768 10774 10780 10785 10790 10797 10800 10802 10805 10808 10812 10817 10820 10822 10824 10829 10834 10838 10848 10854 10853 10853 10856 10856 10860 10868 10874 10880 10883 10880 10880 10884 10886 10888 10894 10894 10894 10894 10898 10898 10899 10901 10900 10900 10903 10903 10898 10895 10894 10892 10894 10900 10902 10900 10904 10906 10904 10904 10906 10906 10906 10907 10906 10906 10906
10606 10611 10617 10624 10630 10636 10642 10649 10659 10668 10673 10680 10688 10696 10704 10711 10716 10719 10720 10726 10734 10740 10750 10758 10762 10768 10773 10778 10784 10786 10788 10795 10798 10800 10808 10814 10816 10819 10824 10826 10830 10838 10842 10841 10843 10846 10847 10852 10862 10868 10870 10874 10876 10876 10877 10878 10878 10882 10885 10886 10888 10892 10893 10892 10891 10891 10892 10896 10894 10886 10886 10888 10885 10888 10894 10894 10895 10900 10900 10896 10898 10900 10900 10900 10900 10900 10900 10898
10598 10602 10608 10614 10621 10626 10633 10641 10651 10658 10664 10670 10678 10685 10692 10698 10704 10707 10710 10718 10727 10734 10740 10746 10750 10756 10762 10768 10773 10774 10779 10789 10792 10794 10803 10808 10808 10815 10818 10817 10822 10828 10832 10832 10834 10838 10842 10847 10852 10857 10860 10867 10872 10870 10866 10867 10868 10870 10876 10880 10882 10884 10884 10882 10882 10883 10886 10888 10883 10876 10878 10880 10880 10883 10888 10888 10890 10895 10894 10889 10891 10894 10892 10892 10892 10892 10894 10892
10588 10593 10599 10606 10612 10618 10625 10633 10642 10648 10654 10661 10668 10674 10682 10688 10692 10698 10702 10711 10720 10725 10729 10736 10744 10750 10754 10759 10765 10769 10776 10785 10786 10788 10796 10796 10798 10806 10807 10808 10816 10819 10821 10826 10827 10830 10836 10840 10842 10848 10854 10859 10862 10859 10856 10856 10856 10861 10870 10874 10874 10873 10873 10873 10874 10877 10879 10877 10871 10867 10870 10875 10876 10878 10882 10882 10884 10886 10886 10884 10885 10886 10886 10886 10885 10885 10886 10885